Simultaneous Nadir Overpasses (SNOs) Predictions

Prediction of SNOs between GOES-17 and NOAA-19 Satellite Orbit:

Table of predicted SNOs for the next 14.0 days since TLE Epoch: 7/26/2019
Index Date Time (GOES-17) GOES-17 Lat,Lon NOAA-19 Lat,Lon Distance(km) Time Diff (sec)
1 07/27/2019 02:04:52 0.03,-137.19 0.49,-135.30 216.93 80
2 07/29/2019 14:26:00 -0.03,-137.19 0.70,-140.29 354.90 80
3 07/30/2019 14:14:23 -0.04,-137.18 0.00,-137.46 31.97 80
4 07/31/2019 14:00:04 -0.04,-137.16 -0.64,-134.62 291.05 80
5 08/03/2019 02:21:10 0.05,-137.12 -0.55,-139.60 284.58 80
6 08/04/2019 02:12:13 0.05,-137.10 0.15,-136.77 38.06 80
7 08/05/2019 02:00:34 0.06,-137.08 0.78,-133.92 360.53 80
8 08/07/2019 14:21:42 -0.06,-137.05 0.35,-138.93 213.79 80
9 08/08/2019 14:07:23 -0.06,-137.03 -0.29,-136.08 108.38 80
10 08/09/2019 13:55:45 -0.06,-137.01 -0.94,-133.24 430.33 80




NCC Satellite Simultaneous Nadir Overpasses (SNOs) Prediction Service
